Voltar ao catálogo

CZ-4C DEB

AtivoPO
NORAD 42672·DEBRIS·🇨🇳 China

Lançado Nov 26, 2015 de Taiyuan Satellite Launch Center

Loading…

Próximas Passagens (próximas 24 horas)

TLE

AtualizadoSource: Space-Track

Época: Sep 14, 2026, 10:46 UTC

1 42672U 15069E   26257.44916230  .00014497  00000-0  92335-3 0  9993
2 42672  98.2820 254.6779 0071407  10.4779 349.7915 15.06748443572542

Acompanhe CZ-4C DEB em tempo real com AllMySat

Download on the App Store